Home   Weather   Changchun   Past weeks

Flag for China Past Weather in Changchun, Jilin, China — Yesterday and Last 2 Weeks

Now
7 °F

Light snow. Ice fog.


Feels Like: -9 °F
Forecast: -2 / 14 °F
Wind: 13 mph from Northwest

Location: Changchun Airport

Current Time: Feb 20, 2017 at 12:33:38 am

Latest Report: Feb 20, 2017 at 12:00 am


Visibility: 2 mi

Pressure: 29.95 "Hg

Humidity: 78%

Dew Point: 1 °F

Location of ChangchunLocation

Past Weather in Changchun — Graph

°F

Changchun Temperature Yesterday

Maximum temperature yesterday: 27 °F (at 3:00 pm)
Minimum temperature yesterday: 5 °F (at 12:00 am)
Average temperature yesterday: 14 °F

High & Low Weather Summary for the Past Weeks

 TemperatureHumidityPressure
High41 °F (Feb 16, 12:00 am)86% (Feb 5, 1:00 am)30.57 "Hg (Feb 5, 1:00 am)
Low-4 °F (Feb 7, 3:00 am)27% (Feb 17, 2:00 pm)29.59 "Hg (Feb 19, 1:00 pm)
Average14 °F61%30.19 "Hg
* Reported Feb 4 11:00 pm — Feb 19 11:00 pm, Changchun, Weather by CustomWeather, © 2017

Note: Actual official high and low records may vary slightly from our data, if they occured in-between our weather recording intervals... More about our weather records

Advertising

Changchun Weather History for the Previous 24 Hours

Scroll right to see more
 ConditionsComfort  
Time TempWeatherWind HumidityBarometerVisibility
11:00 pm
Sun, Feb 19
7 °FLight snow. Ice fog.10 mph85%29.92 "Hg2 mi
10:00 pm9 °FLight snow. Ice fog.10 mph78%29.89 "Hg1 mi
9:00 pm9 °FLight snow. Ice fog.8 mph85%29.86 "Hg2 mi
8:00 pm10 °FLight snow. Ice fog.6 mph79%29.83 "Hg2 mi
7:00 pm12 °FLight snow. Ice fog.13 mph85%29.77 "Hg1 mi
6:00 pm16 °FLight snow. Ice fog.13 mph86%29.71 "Hg1 mi
5:00 pm19 °FLight snow. Ice fog.10 mph86%29.68 "Hg2 mi
4:00 pm25 °FLight snow. Ice fog.13 mph86%29.62 "Hg1 mi
3:00 pm27 °FLight snow. Ice fog.6 mph86%29.59 "Hg1 mi
2:00 pm25 °FLight snow. Ice fog.8 mph86%29.59 "Hg1 mi
1:00 pm23 °FLight snow. Ice fog.13 mph86%29.59 "Hg1 mi
12:00 pm21 °FLight snow. Ice fog.15 mph86%29.62 "Hg1 mi
11:00 am19 °FLight snow. Broken clouds.13 mph86%29.65 "Hg1 mi
10:00 am18 °FSnow. Broken clouds.10 mph86%29.68 "Hg1 mi
9:00 am16 °FSnow. Broken clouds.10 mph86%29.74 "Hg1 mi
8:00 am14 °FSnow. Broken clouds.10 mph85%29.77 "Hg1 mi
7:00 am10 °FLight snow. Broken clouds.6 mph67%29.83 "Hg1 mi
6:00 am10 °FPassing clouds.3 mph56%29.86 "HgN/A
5:00 am9 °FPassing clouds.3 mph56%29.89 "HgN/A
4:00 am7 °FPassing clouds.3 mph56%29.92 "HgN/A
3:00 am5 °FPassing clouds.3 mph55%29.98 "HgN/A
2:00 am5 °FPassing clouds.6 mph55%30.04 "HgN/A
1:00 am5 °FPassing clouds.8 mph55%30.07 "HgN/A
12:00 am5 °FPassing clouds.6 mph51%30.12 "HgN/A
Weather by CustomWeather, © 2017

See weather overviewHow to use our weather pages